Year,Month,Day,Hour,Minute,Value (Times are PST for temperature in C)
2014,01,14,00,00,5.80
2014,01,14,00,01,5.80
2014,01,14,00,02,5.80
2014,01,14,00,03,5.80
2014,01,14,00,04,5.80
2014,01,14,00,05,5.70
2014,01,14,00,06,5.70
2014,01,14,00,07,5.70
2014,01,14,00,08,5.70
2014,01,14,00,09,5.70
2014,01,14,00,10,5.70
2014,01,14,00,11,5.70
2014,01,14,00,12,5.70
2014,01,14,00,13,5.70
2014,01,14,00,14,5.70
2014,01,14,00,15,5.80
2014,01,14,00,16,5.80
2014,01,14,00,17,5.80
2014,01,14,00,18,5.80
2014,01,14,00,19,5.80
2014,01,14,00,20,5.80
2014,01,14,00,21,5.80
2014,01,14,00,22,5.80
2014,01,14,00,23,5.80
2014,01,14,00,24,5.80
2014,01,14,00,25,5.80
2014,01,14,00,26,5.70
2014,01,14,00,27,5.70
2014,01,14,00,28,5.70
2014,01,14,00,29,5.70
2014,01,14,00,30,5.70
2014,01,14,00,31,5.70
2014,01,14,00,32,5.70
2014,01,14,00,33,5.70
2014,01,14,00,34,5.60
2014,01,14,00,35,5.60
2014,01,14,00,36,5.60
2014,01,14,00,37,5.60
2014,01,14,00,38,5.60
2014,01,14,00,39,5.60
2014,01,14,00,40,5.60
2014,01,14,00,41,5.60
2014,01,14,00,42,5.60
2014,01,14,00,43,5.50
2014,01,14,00,44,5.50
2014,01,14,00,45,5.50
2014,01,14,00,46,5.50
2014,01,14,00,47,5.40
2014,01,14,00,48,5.40
2014,01,14,00,49,5.40
2014,01,14,00,50,5.40
2014,01,14,00,51,5.40
2014,01,14,00,52,5.40
2014,01,14,00,53,5.40
2014,01,14,00,54,5.40
2014,01,14,00,55,5.50
2014,01,14,00,56,5.50
2014,01,14,00,57,5.50
2014,01,14,00,58,5.50
2014,01,14,00,59,5.40
2014,01,14,01,00,5.40
2014,01,14,01,01,5.40
2014,01,14,01,02,5.40
2014,01,14,01,03,5.40
2014,01,14,01,04,5.40
2014,01,14,01,05,5.40
2014,01,14,01,06,5.40
2014,01,14,01,07,5.40
2014,01,14,01,08,5.40
2014,01,14,01,09,5.40
2014,01,14,01,10,5.40
2014,01,14,01,11,5.40
2014,01,14,01,12,5.40
2014,01,14,01,13,5.40
2014,01,14,01,14,5.40
2014,01,14,01,15,5.40
2014,01,14,01,16,5.30
2014,01,14,01,17,5.30
2014,01,14,01,18,5.30
2014,01,14,01,19,5.30
2014,01,14,01,20,5.30
2014,01,14,01,21,5.30
2014,01,14,01,22,5.30
2014,01,14,01,23,5.30
2014,01,14,01,24,5.30
2014,01,14,01,25,5.30
2014,01,14,01,26,5.30
2014,01,14,01,27,5.30
2014,01,14,01,28,5.30
2014,01,14,01,29,5.30
2014,01,14,01,30,5.30
2014,01,14,01,31,5.30
2014,01,14,01,32,5.20
2014,01,14,01,33,5.20
2014,01,14,01,34,5.20
2014,01,14,01,35,5.20
2014,01,14,01,36,5.20
2014,01,14,01,37,5.20
2014,01,14,01,38,5.20
2014,01,14,01,39,5.20
2014,01,14,01,40,5.20
2014,01,14,01,41,5.20
2014,01,14,01,42,5.20
2014,01,14,01,43,5.20
2014,01,14,01,44,5.20
2014,01,14,01,49,5.20
2014,01,14,01,50,5.20
2014,01,14,01,51,5.20
2014,01,14,01,52,5.20
2014,01,14,01,53,5.20
2014,01,14,01,54,5.20
2014,01,14,01,55,5.20
2014,01,14,01,56,5.20
2014,01,14,01,57,5.20
2014,01,14,01,58,5.20
2014,01,14,01,59,5.20
2014,01,14,02,00,5.20
2014,01,14,02,01,5.10
2014,01,14,02,02,5.20
2014,01,14,02,03,5.10
2014,01,14,02,04,5.10
2014,01,14,02,05,5.20
2014,01,14,02,06,5.20
2014,01,14,02,07,5.20
2014,01,14,02,08,5.20
2014,01,14,02,09,5.20
2014,01,14,02,10,5.20
2014,01,14,02,11,5.20
2014,01,14,02,12,5.20
2014,01,14,02,13,5.20
2014,01,14,02,14,5.20
2014,01,14,02,15,5.20
2014,01,14,02,16,5.20
2014,01,14,02,17,5.20
2014,01,14,02,18,5.20
2014,01,14,02,19,5.20
2014,01,14,02,20,5.20
2014,01,14,02,21,5.20
2014,01,14,02,22,5.20
2014,01,14,02,23,5.20
2014,01,14,02,24,5.20
2014,01,14,02,25,5.20
2014,01,14,02,26,5.20
2014,01,14,02,27,5.20
2014,01,14,02,28,5.20
2014,01,14,02,29,5.20
2014,01,14,02,30,5.20
2014,01,14,02,31,5.20
2014,01,14,02,32,5.20
2014,01,14,02,33,5.20
2014,01,14,02,34,5.20
2014,01,14,02,35,5.20
2014,01,14,02,36,5.20
2014,01,14,02,37,5.20
2014,01,14,02,38,5.20
2014,01,14,02,39,5.20
2014,01,14,02,40,5.20
2014,01,14,02,41,5.20
2014,01,14,02,42,5.20
2014,01,14,02,43,5.10
2014,01,14,02,44,5.10
2014,01,14,02,45,5.10
2014,01,14,02,46,5.10
2014,01,14,02,47,5.10
2014,01,14,02,48,5.10
2014,01,14,02,49,5.10
2014,01,14,02,50,5.10
2014,01,14,02,51,5.10
2014,01,14,02,52,5.10
2014,01,14,02,53,5.10
2014,01,14,02,54,5.10
2014,01,14,02,55,5.10
2014,01,14,02,56,5.10
2014,01,14,02,57,5.10
2014,01,14,02,58,5.10
2014,01,14,02,59,5.10
2014,01,14,03,00,5.10
2014,01,14,03,01,5.10
2014,01,14,03,02,5.10
2014,01,14,03,03,5.10
2014,01,14,03,04,5.10
2014,01,14,03,05,5.10
2014,01,14,03,06,5.10
2014,01,14,03,07,5.10
2014,01,14,03,08,5.10
2014,01,14,03,09,5.10
2014,01,14,03,10,5.10
2014,01,14,03,11,5.10
2014,01,14,03,12,5.10
2014,01,14,03,13,5.10
2014,01,14,03,14,5.10
2014,01,14,03,15,5.10
2014,01,14,03,16,5.10
2014,01,14,03,17,5.10
2014,01,14,03,18,5.10
2014,01,14,03,19,5.10
2014,01,14,03,20,5.10
2014,01,14,03,21,5.00
2014,01,14,03,22,5.00
2014,01,14,03,23,5.00
2014,01,14,03,24,5.00
2014,01,14,03,25,5.00
2014,01,14,03,26,5.00
2014,01,14,03,27,5.00
2014,01,14,03,28,5.00
2014,01,14,03,29,5.00
2014,01,14,03,30,5.00
2014,01,14,03,31,5.00
2014,01,14,03,32,4.90
2014,01,14,03,33,5.00
2014,01,14,03,34,4.90
2014,01,14,03,35,4.90
2014,01,14,03,36,4.90
2014,01,14,03,37,4.90
2014,01,14,03,38,4.90
2014,01,14,03,39,4.90
2014,01,14,03,40,4.90
2014,01,14,03,41,4.90
2014,01,14,03,42,5.00
2014,01,14,03,43,4.90
2014,01,14,03,44,4.90
2014,01,14,03,45,5.00
2014,01,14,03,46,4.90
2014,01,14,03,47,4.90
2014,01,14,03,48,4.90
2014,01,14,03,49,4.90
2014,01,14,03,50,4.90
2014,01,14,03,51,4.90
2014,01,14,03,52,4.90
2014,01,14,03,53,4.90
2014,01,14,03,54,4.90
2014,01,14,03,55,4.80
2014,01,14,03,56,4.80
2014,01,14,03,57,4.80
2014,01,14,03,58,4.80
2014,01,14,03,59,4.80
2014,01,14,04,00,4.80
2014,01,14,04,01,4.80
2014,01,14,04,02,4.80
2014,01,14,04,03,4.80
2014,01,14,04,04,4.80
2014,01,14,04,05,4.80
2014,01,14,04,06,4.80
2014,01,14,04,07,4.80
2014,01,14,04,08,4.80
2014,01,14,04,09,4.80
2014,01,14,04,10,4.80
2014,01,14,04,11,4.80
2014,01,14,04,12,4.80
2014,01,14,04,13,4.80
2014,01,14,04,14,4.80
2014,01,14,04,15,4.80
2014,01,14,04,16,4.70
2014,01,14,04,17,4.70
2014,01,14,04,18,4.70
2014,01,14,04,19,4.70
2014,01,14,04,20,4.70
2014,01,14,04,21,4.70
2014,01,14,04,22,4.70
2014,01,14,04,23,4.70
2014,01,14,04,24,4.70
2014,01,14,04,25,4.70
2014,01,14,04,26,4.60
2014,01,14,04,27,4.60
2014,01,14,04,28,4.60
2014,01,14,04,29,4.60
2014,01,14,04,30,4.60
2014,01,14,04,31,4.70
2014,01,14,04,32,4.70
2014,01,14,04,33,4.70
2014,01,14,04,34,4.70
2014,01,14,04,35,4.70
2014,01,14,04,36,4.70
2014,01,14,04,37,4.70
2014,01,14,04,38,4.70
2014,01,14,04,39,4.80
2014,01,14,04,40,4.80
2014,01,14,04,41,4.80
2014,01,14,04,42,4.80
2014,01,14,04,43,4.80
2014,01,14,04,44,4.80
2014,01,14,04,45,4.80
2014,01,14,04,46,4.80
2014,01,14,04,47,4.80
2014,01,14,04,48,4.80
2014,01,14,04,49,4.80
2014,01,14,04,50,4.80
2014,01,14,04,51,4.70
2014,01,14,04,52,4.70
2014,01,14,04,53,4.70
2014,01,14,04,54,4.70
2014,01,14,04,55,4.70
2014,01,14,04,56,4.70
2014,01,14,04,57,4.70
2014,01,14,04,58,4.70
2014,01,14,04,59,4.70
2014,01,14,05,00,4.70
2014,01,14,05,01,4.70
2014,01,14,05,02,4.70
2014,01,14,05,03,4.70
2014,01,14,05,04,4.70
2014,01,14,05,05,4.70
2014,01,14,05,06,4.70
2014,01,14,05,07,4.70
2014,01,14,05,08,4.70
2014,01,14,05,09,4.70
2014,01,14,05,10,4.70
2014,01,14,05,11,4.70
2014,01,14,05,12,4.60
2014,01,14,05,13,4.60
2014,01,14,05,14,4.60
2014,01,14,05,15,4.70
2014,01,14,05,16,4.60
2014,01,14,05,17,4.60
2014,01,14,05,18,4.60
2014,01,14,05,19,4.60
2014,01,14,05,20,4.60
2014,01,14,05,21,4.60
2014,01,14,05,22,4.60
2014,01,14,05,23,4.60
2014,01,14,05,24,4.60
2014,01,14,05,25,4.60
2014,01,14,05,26,4.60
2014,01,14,05,27,4.60
2014,01,14,05,28,4.60
2014,01,14,05,29,4.60
2014,01,14,05,30,4.60
2014,01,14,05,31,4.60
2014,01,14,05,32,4.60
2014,01,14,05,33,4.60
2014,01,14,05,34,4.60
2014,01,14,05,35,4.60
2014,01,14,05,36,4.60
2014,01,14,05,37,4.60
2014,01,14,05,38,4.60
2014,01,14,05,39,4.60
2014,01,14,05,40,4.60
2014,01,14,05,41,4.60
2014,01,14,05,42,4.60
2014,01,14,05,43,4.60
2014,01,14,05,44,4.60
2014,01,14,05,45,4.60
2014,01,14,05,46,4.60
2014,01,14,05,47,4.60
2014,01,14,05,48,4.60
2014,01,14,05,49,4.60
2014,01,14,05,50,4.60
2014,01,14,05,51,4.60
2014,01,14,05,52,4.70
2014,01,14,05,53,4.70
2014,01,14,05,54,4.70
2014,01,14,05,55,4.70
2014,01,14,05,56,4.70
2014,01,14,05,57,4.70
2014,01,14,05,58,4.70
2014,01,14,05,59,4.70
2014,01,14,06,00,4.70
2014,01,14,06,01,4.70
2014,01,14,06,02,4.70
2014,01,14,06,03,4.70
2014,01,14,06,04,4.70
2014,01,14,06,05,4.70
2014,01,14,06,06,4.70
2014,01,14,06,07,4.70
2014,01,14,06,08,4.70
2014,01,14,06,09,4.70
2014,01,14,06,10,4.70
2014,01,14,06,11,4.70
2014,01,14,06,12,4.70
2014,01,14,06,13,4.70
2014,01,14,06,14,4.70
2014,01,14,06,15,4.70
2014,01,14,06,16,4.70
2014,01,14,06,17,4.70
2014,01,14,06,18,4.70
2014,01,14,06,19,4.70
2014,01,14,06,20,4.70
2014,01,14,06,21,4.70
2014,01,14,06,22,4.70
2014,01,14,06,23,4.70
2014,01,14,06,24,4.70
2014,01,14,06,25,4.70
2014,01,14,06,26,4.70
2014,01,14,06,27,4.70
2014,01,14,06,28,4.70
2014,01,14,06,29,4.70
2014,01,14,06,30,4.70
2014,01,14,06,31,4.70
2014,01,14,06,32,4.70
2014,01,14,06,33,4.70
2014,01,14,06,34,4.70
2014,01,14,06,35,4.70
2014,01,14,06,36,4.70
2014,01,14,06,37,4.70
2014,01,14,06,38,4.70
2014,01,14,06,39,4.70
2014,01,14,06,40,4.70
2014,01,14,06,41,4.70
2014,01,14,06,42,4.70
2014,01,14,06,43,4.70
2014,01,14,06,44,4.70
2014,01,14,06,45,4.70
2014,01,14,06,46,4.70
2014,01,14,06,47,4.70
2014,01,14,06,48,4.70
2014,01,14,06,49,4.70
2014,01,14,06,50,4.70
2014,01,14,06,51,4.70
2014,01,14,06,52,4.70
2014,01,14,06,53,4.70
2014,01,14,06,54,4.70
2014,01,14,06,55,4.70
2014,01,14,06,56,4.70
2014,01,14,06,57,4.70
2014,01,14,06,58,4.70
2014,01,14,06,59,4.70
2014,01,14,07,00,4.70
2014,01,14,07,01,4.70
2014,01,14,07,02,4.60
2014,01,14,07,03,4.60
2014,01,14,07,04,4.60
2014,01,14,07,05,4.60
2014,01,14,07,06,4.60
2014,01,14,07,07,4.60
2014,01,14,07,08,4.60
2014,01,14,07,09,4.60
2014,01,14,07,10,4.60
2014,01,14,07,11,4.60
2014,01,14,07,12,4.60
2014,01,14,07,13,4.70
2014,01,14,07,14,4.70
2014,01,14,07,15,4.70
2014,01,14,07,16,4.70
2014,01,14,07,17,4.70
2014,01,14,07,18,4.70
2014,01,14,07,19,4.70
2014,01,14,07,20,4.70
2014,01,14,07,21,4.70
2014,01,14,07,22,4.70
2014,01,14,07,23,4.70
2014,01,14,07,24,4.70
2014,01,14,07,25,4.70
2014,01,14,07,26,4.70
2014,01,14,07,27,4.70
2014,01,14,07,28,4.70
2014,01,14,07,29,4.70
2014,01,14,07,30,4.70
2014,01,14,07,31,4.70
2014,01,14,07,32,4.70
2014,01,14,07,33,4.70
2014,01,14,07,34,4.70
2014,01,14,07,35,4.70
2014,01,14,07,36,4.70
2014,01,14,07,37,4.70
2014,01,14,07,38,4.70
2014,01,14,07,39,4.70
2014,01,14,07,40,4.70
2014,01,14,07,41,4.70
2014,01,14,07,42,4.70
2014,01,14,07,43,4.70
2014,01,14,07,44,4.70
2014,01,14,07,45,4.70
2014,01,14,07,46,4.70
2014,01,14,07,47,4.60
2014,01,14,07,48,4.60
2014,01,14,07,49,4.60
2014,01,14,07,50,4.60
2014,01,14,07,51,4.60
2014,01,14,07,52,4.60
2014,01,14,07,53,4.60
2014,01,14,07,54,4.60
2014,01,14,07,55,4.60
2014,01,14,07,56,4.60
2014,01,14,07,57,4.60
2014,01,14,07,58,4.60
2014,01,14,07,59,4.60
2014,01,14,08,00,4.60
2014,01,14,08,01,4.60
2014,01,14,08,02,4.50
2014,01,14,08,03,4.60
2014,01,14,08,04,4.60
2014,01,14,08,05,4.50
2014,01,14,08,06,4.50
2014,01,14,08,07,4.50
2014,01,14,08,08,4.50
2014,01,14,08,09,4.50
2014,01,14,08,10,4.50
2014,01,14,08,11,4.50
2014,01,14,08,12,4.50
2014,01,14,08,13,4.50
2014,01,14,08,14,4.50
2014,01,14,08,15,4.50
2014,01,14,08,16,4.50
2014,01,14,08,17,4.50
2014,01,14,08,18,4.50
2014,01,14,08,19,4.50
2014,01,14,08,20,4.50
2014,01,14,08,21,4.50
2014,01,14,08,22,4.50
2014,01,14,08,23,4.50
2014,01,14,08,24,4.40
2014,01,14,08,25,4.50
2014,01,14,08,26,4.50
2014,01,14,08,27,4.50
2014,01,14,08,28,4.50
2014,01,14,08,29,4.40
2014,01,14,08,30,4.40
2014,01,14,08,31,4.40
2014,01,14,08,32,4.40
2014,01,14,08,33,4.40
2014,01,14,08,34,4.40
2014,01,14,08,35,4.40
2014,01,14,08,36,4.40
2014,01,14,08,37,4.40
2014,01,14,08,38,4.40
2014,01,14,08,39,4.40
2014,01,14,08,40,4.40
2014,01,14,08,41,4.40
2014,01,14,08,42,4.40
2014,01,14,08,43,4.40
2014,01,14,08,44,4.40
2014,01,14,08,45,4.40
2014,01,14,08,46,4.40
2014,01,14,08,47,4.40
2014,01,14,08,48,4.40
2014,01,14,08,49,4.30
2014,01,14,08,50,4.40
2014,01,14,08,51,4.40
2014,01,14,08,52,4.40
2014,01,14,08,53,4.40
2014,01,14,08,54,4.40
2014,01,14,08,55,4.40
2014,01,14,08,56,4.40
2014,01,14,08,57,4.40
2014,01,14,08,58,4.40
2014,01,14,08,59,4.40
2014,01,14,09,00,4.40
2014,01,14,09,01,4.40
2014,01,14,09,02,4.50
2014,01,14,09,03,4.50
2014,01,14,09,04,4.50
2014,01,14,09,05,4.50
2014,01,14,09,06,4.60
2014,01,14,09,07,4.60
2014,01,14,09,08,4.60
2014,01,14,09,09,4.60
2014,01,14,09,10,4.60
2014,01,14,09,11,4.70
2014,01,14,09,12,4.70
2014,01,14,09,13,4.70
2014,01,14,09,14,4.70
2014,01,14,09,15,4.70
2014,01,14,09,16,4.70
2014,01,14,09,17,4.70
2014,01,14,09,18,4.70
2014,01,14,09,19,4.80
2014,01,14,09,20,4.80
2014,01,14,09,21,4.80
2014,01,14,09,22,4.80
2014,01,14,09,23,4.80
2014,01,14,09,24,4.80
2014,01,14,09,25,4.80
2014,01,14,09,26,4.80
2014,01,14,09,27,4.80
2014,01,14,09,28,4.80
2014,01,14,09,29,4.80
2014,01,14,09,30,4.80
2014,01,14,09,31,4.80
2014,01,14,09,32,4.80
2014,01,14,09,33,4.80
2014,01,14,09,34,4.90
2014,01,14,09,35,4.90
2014,01,14,09,36,4.90
2014,01,14,09,37,4.90
2014,01,14,09,38,4.90
2014,01,14,09,39,4.90
2014,01,14,09,40,4.90
2014,01,14,09,41,4.90
2014,01,14,09,42,4.90
2014,01,14,09,43,4.90
2014,01,14,09,44,5.00
2014,01,14,09,45,5.00
2014,01,14,09,46,5.00
2014,01,14,09,47,5.00
2014,01,14,09,48,5.00
2014,01,14,09,49,5.00
2014,01,14,09,50,5.10
2014,01,14,09,51,5.10
2014,01,14,09,52,5.10
2014,01,14,09,53,5.10
2014,01,14,09,54,5.10
2014,01,14,09,55,5.10
2014,01,14,09,56,5.10
2014,01,14,09,57,5.10
2014,01,14,09,58,5.10
2014,01,14,09,59,5.20
2014,01,14,10,00,5.20
2014,01,14,10,01,5.20
2014,01,14,10,02,5.20
2014,01,14,10,03,5.20
2014,01,14,10,04,5.20
2014,01,14,10,05,5.20
2014,01,14,10,06,5.20
2014,01,14,10,07,5.20
2014,01,14,10,08,5.20
2014,01,14,10,09,5.20
2014,01,14,10,10,5.20
2014,01,14,10,11,5.20
2014,01,14,10,12,5.20
2014,01,14,10,13,5.20
2014,01,14,10,14,5.20
2014,01,14,10,15,5.20
2014,01,14,10,16,5.20
2014,01,14,10,17,5.20
2014,01,14,10,18,5.20
2014,01,14,10,19,5.20
2014,01,14,10,20,5.20
2014,01,14,10,21,5.20
2014,01,14,10,22,5.10
2014,01,14,10,23,5.10
2014,01,14,10,24,5.10
2014,01,14,10,25,5.10
2014,01,14,10,26,5.20
2014,01,14,10,27,5.20
2014,01,14,10,28,5.20
2014,01,14,10,29,5.20
2014,01,14,10,30,5.20
2014,01,14,10,31,5.20
2014,01,14,10,32,5.20
2014,01,14,10,33,5.20
2014,01,14,10,34,5.30
2014,01,14,10,35,5.30
2014,01,14,10,36,5.30
2014,01,14,10,37,5.30
2014,01,14,10,38,5.40
2014,01,14,10,39,5.40
2014,01,14,10,40,5.40
2014,01,14,10,41,5.40
2014,01,14,10,42,5.50
2014,01,14,10,43,5.50
2014,01,14,10,44,5.60
2014,01,14,10,45,5.60
2014,01,14,10,46,5.60
2014,01,14,10,47,5.70
2014,01,14,10,48,5.70
2014,01,14,10,49,5.70
2014,01,14,10,50,5.80
2014,01,14,10,51,5.80
2014,01,14,10,52,5.80
2014,01,14,10,53,5.80
2014,01,14,10,54,5.80
2014,01,14,10,55,5.80
2014,01,14,10,56,5.90
2014,01,14,10,57,5.90
2014,01,14,10,58,5.90
2014,01,14,10,59,5.90
2014,01,14,11,00,5.90
2014,01,14,11,01,5.90
2014,01,14,11,02,6.00
2014,01,14,11,03,6.00
2014,01,14,11,04,6.00
2014,01,14,11,05,6.10
2014,01,14,11,06,6.20
2014,01,14,11,07,6.20
2014,01,14,11,08,6.30
2014,01,14,11,09,6.40
2014,01,14,11,10,6.50
2014,01,14,11,11,6.60
2014,01,14,11,12,6.60
2014,01,14,11,13,6.70
2014,01,14,11,14,6.70
2014,01,14,11,15,6.80
2014,01,14,11,16,6.90
2014,01,14,11,17,6.90
2014,01,14,11,18,7.00
2014,01,14,11,19,7.10
2014,01,14,11,20,7.20
2014,01,14,11,21,7.20
2014,01,14,11,22,7.30
2014,01,14,11,23,7.30
2014,01,14,11,24,7.30
2014,01,14,11,25,7.30
2014,01,14,11,26,7.30
2014,01,14,11,27,7.30
2014,01,14,11,28,7.20
2014,01,14,11,29,7.20
2014,01,14,11,30,7.20
2014,01,14,11,31,7.20
2014,01,14,11,32,7.20
2014,01,14,11,33,7.20
2014,01,14,11,34,7.20
2014,01,14,11,35,7.20
2014,01,14,11,36,7.20
2014,01,14,11,37,7.20
2014,01,14,11,38,7.20
2014,01,14,11,39,7.20
2014,01,14,11,40,7.20
2014,01,14,11,41,7.20
2014,01,14,11,42,7.20
2014,01,14,11,43,7.30
2014,01,14,11,44,7.30
2014,01,14,11,45,7.30
2014,01,14,11,46,7.40
2014,01,14,11,47,7.40
2014,01,14,11,48,7.50
2014,01,14,11,49,7.50
2014,01,14,11,50,7.60
2014,01,14,11,51,7.60
2014,01,14,11,52,7.70
2014,01,14,11,53,7.80
2014,01,14,11,54,7.90
2014,01,14,11,55,8.00
2014,01,14,11,56,8.10
2014,01,14,11,57,8.20
2014,01,14,11,58,8.20
2014,01,14,11,59,8.30
2014,01,14,12,00,8.30
2014,01,14,12,01,8.30
2014,01,14,12,02,8.40
2014,01,14,12,03,8.50
2014,01,14,12,04,8.60
2014,01,14,12,05,8.60
2014,01,14,12,06,8.70
2014,01,14,12,07,8.80
2014,01,14,12,08,8.80
2014,01,14,12,09,8.90
2014,01,14,12,10,8.90
2014,01,14,12,11,9.00
2014,01,14,12,12,9.00
2014,01,14,12,13,9.10
2014,01,14,12,14,9.10
2014,01,14,12,15,9.10
2014,01,14,12,16,9.10
2014,01,14,12,17,9.10
2014,01,14,12,18,9.20
2014,01,14,12,19,9.20
2014,01,14,12,20,9.20
2014,01,14,12,21,9.20
2014,01,14,12,22,9.20
2014,01,14,12,23,9.20
2014,01,14,12,24,9.20
2014,01,14,12,25,9.10
2014,01,14,12,26,9.00
2014,01,14,12,27,9.00
2014,01,14,12,28,8.90
2014,01,14,12,29,8.90
2014,01,14,12,30,8.90
2014,01,14,12,31,8.90
2014,01,14,12,32,8.90
2014,01,14,12,33,8.80
2014,01,14,12,34,8.70
2014,01,14,12,35,8.70
2014,01,14,12,36,8.60
2014,01,14,12,37,8.60
2014,01,14,12,38,8.60
2014,01,14,12,39,8.60
2014,01,14,12,40,8.60
2014,01,14,12,41,8.60
2014,01,14,12,42,8.60
2014,01,14,12,43,8.50
2014,01,14,12,44,8.50
2014,01,14,12,45,8.40
2014,01,14,12,46,8.30
2014,01,14,12,47,8.30
2014,01,14,12,48,8.20
2014,01,14,12,49,8.20
2014,01,14,12,50,8.20
2014,01,14,12,51,8.20
2014,01,14,12,52,8.10
2014,01,14,12,53,8.10
2014,01,14,12,54,8.10
2014,01,14,12,55,8.10
2014,01,14,12,56,8.00
2014,01,14,12,57,8.00
2014,01,14,12,58,7.90
2014,01,14,12,59,7.90
2014,01,14,13,00,7.90
2014,01,14,13,01,7.90
2014,01,14,13,02,7.90
2014,01,14,13,03,7.90
2014,01,14,13,04,7.90
2014,01,14,13,05,7.90
2014,01,14,13,06,8.00
2014,01,14,13,07,8.00
2014,01,14,13,08,8.00
2014,01,14,13,09,8.00
2014,01,14,13,10,8.00
2014,01,14,13,11,8.00
2014,01,14,13,12,8.00
2014,01,14,13,13,8.00
2014,01,14,13,14,8.00
2014,01,14,13,15,8.00
2014,01,14,13,16,8.00
2014,01,14,13,17,7.90
2014,01,14,13,18,7.90
2014,01,14,13,19,7.90
2014,01,14,13,20,7.90
2014,01,14,13,21,7.90
2014,01,14,13,22,7.90
2014,01,14,13,23,7.90
2014,01,14,13,24,7.90
2014,01,14,13,25,7.90
2014,01,14,13,26,7.90
2014,01,14,13,27,8.00
2014,01,14,13,28,8.00
2014,01,14,13,29,8.10
2014,01,14,13,30,8.10
2014,01,14,13,31,8.10
2014,01,14,13,32,8.10
2014,01,14,13,33,8.20
2014,01,14,13,34,8.20
2014,01,14,13,35,8.20
2014,01,14,13,36,8.20
2014,01,14,13,37,8.20
2014,01,14,13,38,8.20
2014,01,14,13,39,8.20
2014,01,14,13,40,8.10
2014,01,14,13,41,8.10
2014,01,14,13,42,8.10
2014,01,14,13,43,8.10
2014,01,14,13,44,8.10
2014,01,14,13,45,8.10
2014,01,14,13,46,8.10
2014,01,14,13,47,8.10
2014,01,14,13,48,8.10
2014,01,14,13,49,8.10
2014,01,14,13,50,8.10
2014,01,14,13,51,8.10
2014,01,14,13,52,8.10
2014,01,14,13,53,8.10
2014,01,14,13,54,8.10
2014,01,14,13,55,8.10
2014,01,14,13,56,8.20
2014,01,14,13,57,8.20
2014,01,14,13,58,8.20
2014,01,14,13,59,8.30
2014,01,14,14,00,8.30
2014,01,14,14,01,8.40
2014,01,14,14,02,8.40
2014,01,14,14,03,8.50
2014,01,14,14,04,8.60
2014,01,14,14,05,8.60
2014,01,14,14,06,8.70
2014,01,14,14,07,8.70
2014,01,14,14,08,8.80
2014,01,14,14,09,8.80
2014,01,14,14,10,8.80
2014,01,14,14,11,8.70
2014,01,14,14,12,8.70
2014,01,14,14,13,8.70
2014,01,14,14,14,8.70
2014,01,14,14,15,8.80
2014,01,14,14,16,8.80
2014,01,14,14,17,8.80
2014,01,14,14,18,8.90
2014,01,14,14,19,8.90
2014,01,14,14,20,8.90
2014,01,14,14,21,9.00
2014,01,14,14,22,9.00
2014,01,14,14,23,9.00
2014,01,14,14,24,9.00
2014,01,14,14,25,9.10
2014,01,14,14,26,9.10
2014,01,14,14,27,9.20
2014,01,14,14,28,9.20
2014,01,14,14,29,9.30
2014,01,14,14,30,9.40
2014,01,14,14,31,9.50
2014,01,14,14,32,9.60
2014,01,14,14,33,9.60
2014,01,14,14,34,9.60
2014,01,14,14,35,9.60
2014,01,14,14,36,9.60
2014,01,14,14,37,9.60
2014,01,14,14,38,9.60
2014,01,14,14,39,9.70
2014,01,14,14,40,9.70
2014,01,14,14,41,9.70
2014,01,14,14,42,9.70
2014,01,14,14,43,9.70
2014,01,14,14,44,9.70
2014,01,14,14,45,9.70
2014,01,14,14,46,9.70
2014,01,14,14,47,9.70
2014,01,14,14,48,9.70
2014,01,14,14,49,9.70
2014,01,14,14,50,9.60
2014,01,14,14,51,9.60
2014,01,14,14,52,9.70
2014,01,14,14,53,9.60
2014,01,14,14,54,9.60
2014,01,14,14,55,9.60
2014,01,14,14,56,9.50
2014,01,14,14,57,9.50
2014,01,14,14,58,9.40
2014,01,14,14,59,9.40
2014,01,14,15,00,9.30
2014,01,14,15,01,9.30
2014,01,14,15,02,9.40
2014,01,14,15,03,9.40
2014,01,14,15,04,9.40
2014,01,14,15,05,9.40
2014,01,14,15,06,9.40
2014,01,14,15,07,9.40
2014,01,14,15,08,9.40
2014,01,14,15,09,9.40
2014,01,14,15,10,9.40
2014,01,14,15,11,9.40
2014,01,14,15,12,9.40
2014,01,14,15,13,9.40
2014,01,14,15,14,9.30
2014,01,14,15,15,9.30
2014,01,14,15,16,9.30
2014,01,14,15,17,9.30
2014,01,14,15,18,9.30
2014,01,14,15,19,9.20
2014,01,14,15,20,9.20
2014,01,14,15,21,9.10
2014,01,14,15,22,9.10
2014,01,14,15,23,9.10
2014,01,14,15,24,9.10
2014,01,14,15,25,9.10
2014,01,14,15,26,9.00
2014,01,14,15,27,9.00
2014,01,14,15,28,8.90
2014,01,14,15,29,8.90
2014,01,14,15,30,8.90
2014,01,14,15,31,8.80
2014,01,14,15,32,8.80
2014,01,14,15,33,8.80
2014,01,14,15,34,8.70
2014,01,14,15,35,8.70
2014,01,14,15,36,8.70
2014,01,14,15,37,8.70
2014,01,14,15,38,8.60
2014,01,14,15,39,8.60
2014,01,14,15,40,8.60
2014,01,14,15,41,8.60
2014,01,14,15,42,8.60
2014,01,14,15,43,8.50
2014,01,14,15,44,8.40
2014,01,14,15,45,8.40
2014,01,14,15,46,8.30
2014,01,14,15,47,8.30
2014,01,14,15,48,8.30
2014,01,14,15,49,8.30
2014,01,14,15,50,8.30
2014,01,14,15,51,8.20
2014,01,14,15,52,8.20
2014,01,14,15,53,8.20
2014,01,14,15,54,8.20
2014,01,14,15,55,8.20
2014,01,14,15,56,8.10
2014,01,14,15,57,8.10
2014,01,14,15,58,8.10
2014,01,14,15,59,8.00
2014,01,14,16,00,8.00
2014,01,14,16,01,8.00
2014,01,14,16,02,7.90
2014,01,14,16,03,7.90
2014,01,14,16,04,7.80
2014,01,14,16,05,7.80
2014,01,14,16,06,7.80
2014,01,14,16,07,7.80
2014,01,14,16,08,7.70
2014,01,14,16,09,7.70
2014,01,14,16,10,7.70
2014,01,14,16,11,7.70
2014,01,14,16,12,7.60
2014,01,14,16,13,7.60
2014,01,14,16,14,7.60
2014,01,14,16,15,7.50
2014,01,14,16,16,7.50
2014,01,14,16,17,7.50
2014,01,14,16,18,7.40
2014,01,14,16,19,7.40
2014,01,14,16,20,7.40
2014,01,14,16,21,7.30
2014,01,14,16,22,7.30
2014,01,14,16,23,7.30
2014,01,14,16,24,7.30
2014,01,14,16,25,7.30
2014,01,14,16,26,7.30
2014,01,14,16,27,7.20
2014,01,14,16,28,7.20
2014,01,14,16,29,7.20
2014,01,14,16,30,7.20
2014,01,14,16,31,7.20
2014,01,14,16,32,7.20
2014,01,14,16,33,7.10
2014,01,14,16,34,7.10
2014,01,14,16,35,7.10
2014,01,14,16,36,7.10
2014,01,14,16,37,7.10
2014,01,14,16,38,7.10
2014,01,14,16,39,7.00
2014,01,14,16,40,7.00
2014,01,14,16,41,7.00
2014,01,14,16,42,7.00
2014,01,14,16,43,6.90
2014,01,14,16,44,6.90
2014,01,14,16,45,6.90
2014,01,14,16,46,6.90
2014,01,14,16,47,6.90
2014,01,14,16,48,6.90
2014,01,14,16,49,6.90
2014,01,14,16,50,6.90
2014,01,14,16,51,6.90
2014,01,14,16,52,6.90
2014,01,14,16,53,6.90
2014,01,14,16,54,6.90
2014,01,14,16,55,6.90
2014,01,14,16,56,6.90
2014,01,14,16,57,6.90
2014,01,14,16,58,6.80
2014,01,14,16,59,6.80
2014,01,14,17,00,6.80
2014,01,14,17,01,6.80
2014,01,14,17,02,6.80
2014,01,14,17,03,6.80
2014,01,14,17,04,6.80
2014,01,14,17,05,6.80
2014,01,14,17,06,6.80
2014,01,14,17,07,6.80
2014,01,14,17,08,6.80
2014,01,14,17,09,6.70
2014,01,14,17,10,6.70
2014,01,14,17,11,6.70
2014,01,14,17,12,6.70
2014,01,14,17,13,6.70
2014,01,14,17,14,6.70
2014,01,14,17,15,6.70
2014,01,14,17,16,6.70
2014,01,14,17,17,6.70
2014,01,14,17,18,6.60
2014,01,14,17,19,6.60
2014,01,14,17,20,6.60
2014,01,14,17,21,6.60
2014,01,14,17,22,6.60
2014,01,14,17,23,6.60
2014,01,14,17,24,6.50
2014,01,14,17,25,6.50
2014,01,14,17,26,6.50
2014,01,14,17,27,6.50
2014,01,14,17,28,6.40
2014,01,14,17,29,6.40
2014,01,14,17,30,6.40
2014,01,14,17,31,6.40
2014,01,14,17,32,6.40
2014,01,14,17,33,6.30
2014,01,14,17,34,6.30
2014,01,14,17,35,6.30
2014,01,14,17,36,6.30
2014,01,14,17,37,6.30
2014,01,14,17,38,6.30
2014,01,14,17,39,6.20
2014,01,14,17,40,6.20
2014,01,14,17,41,6.20
2014,01,14,17,42,6.20
2014,01,14,17,43,6.20
2014,01,14,17,44,6.20
2014,01,14,17,45,6.20
2014,01,14,17,46,6.20
2014,01,14,17,47,6.10
2014,01,14,17,48,6.10
2014,01,14,17,49,6.10
2014,01,14,17,50,6.10
2014,01,14,17,51,6.10
2014,01,14,17,52,6.10
2014,01,14,17,53,6.10
2014,01,14,17,54,6.10
2014,01,14,17,55,6.10
2014,01,14,17,56,6.10
2014,01,14,17,57,6.00
2014,01,14,17,58,6.00
2014,01,14,17,59,6.00
2014,01,14,18,00,6.00
2014,01,14,18,01,6.00
2014,01,14,18,02,6.00
2014,01,14,18,03,6.00
2014,01,14,18,04,5.90
2014,01,14,18,05,5.90
2014,01,14,18,06,5.90
2014,01,14,18,07,5.90
2014,01,14,18,08,5.90
2014,01,14,18,09,5.90
2014,01,14,18,10,5.90